Showing default

ICEYE-X48, 63253

Orbit data source: Space-Track

ICEYE-X48, 63253 is a payload satellite owned by ICEYE US (US) in SSO that was launched on Sat, 15 Mar 2025 UTC via an FALCON 9 launch vehicle from the Air Force Western Test Range (AFWTR). Payload-class satellites include a variety of spacecraft equipped with specific instruments for various scientific and technological missions. These include communications satellites like Starlink; space stations such as the ISS; scientific satellites like the Hubble; Earth observation satellites from companies like Planet Labs, Umbra, and HawkEye 360; GPS; miniature CubeSats for education and research; and military/defense satellites.

Loading next visibility...
Identifier
63253, 2025-052AV
Orbit
SSO
Country
Flag of USUS
Related business
Manufacturer
ICEYE
Mission
Operational Commercial Radar Imaging
Bus & Motor
ICEYE, Unknown motor
Mass
80 kg wet, 80 kg dry
Launch date (UTC)
2025-03-15 (1 year ago)
Launch vehicle
FALCON 9
Launch site
Air Force Western Test Range (AFWTR)
Object type
Payload
Rocket body
Debris
Shape & HBR
Box + 1 Pan, 0.7 m
Radar Cross Section
0.776 m², Medium (>0.1 m² and < 1m²)

Expand to show TLE details & history
Last TLE update: 12 hours ago

TLE from 12 hours ago
0 ICEYE-X48
1 63253U 25052AV  26129.71095242  .00002569  00000-0  22393-3 0  9997
2 63253  97.6910  22.4848 0002134  32.7426 327.3928 14.97756778 62918
Epoch: 2026-05-09T17:03Z
TLE epoch observation values (Epoch: 2026-05-09T17:03:46.289Z)
Latitude
-0.00001°
Longitude
-100.98254°
Altitude
575.631 km
Speed
7.574 km/s
True Right ascension
01h 29m 56s
True Declination
0° 00' 00"
Sunlit
Object was in daylight at epoch
Visualization orbit readout
Latitude
Unknown
Longitude
Unknown
Altitude
Unknown
Speed
Unknown
Apparent Right ascension
Unknown
Apparent Declination
Unknown
Sunlit
N/A
Visualization observer readout
Local Sidereal Time
13:33:45
Azimuth
Unknown
Elevation
Unknown
Doppler factor
Unknown
Orbital elements
Apogee altitude
572.32 km
Perigee altitude
569.354 km
Semi-major axis
6,948.974 km
Eccentricity
0.00021
Inclination
97.691°
RAAN
22.4848°
Arg. of periapsis
32.7426°
True anomaly
327.37962°
Mean anomaly
327.3928°
Eccentric anomaly
327.38621°
Mean motion
3.74681 °/min
Orbital period
96.08 mins
BSTAR
0.00022393
Loading maneuver chart data...
Computing Atmospheric mass density...
Loading historical data...
Loading historical data...
Loading historical data...
Loading historical data...
Loading historical data...
Loading historical data...
Loading historical data...

Documentation

Showing up to 5 results
|